パンスターズ彗星

C/2016 A1 ( PanSTARRS )

English version
Home page
Updated on June 15, 2021

---------------------------------------------------------------------

・ プロフィール

発見日 2016年1月1日
発見光度 19.3等
発見者 Pan-STARRS 1 telescope (Haleakala)

・ 写真集

・ 軌道要素

Epoch 2017 Nov. 23.0 TT = JDT 2458080.5
T 2017 Nov. 23.37377 TT                                 Rudenko
q   5.3277601            (2000.0)            P               Q
z  -0.0003714      Peri.   10.32044     -0.53513165     +0.51121134
 +/-0.0000004      Node   128.17453     +0.70123241     -0.17512640
e   1.0019789      Incl.  121.18573     +0.47107030     +0.84142362
From 2169 observations 2016 Jan. 1-2020 Feb. 15, mean residual 0".7.

・ 星図

・ 光度変化

        m1 = 1.2 + 5 logΔ + 15.0 log r

---------------------------------------------------------------------

軌道要素はM.P.E.C. 2021-F20に掲載されたものです。
星図はステラナビゲータ Ver.10 (アストロアーツ) で作成したものです。
光度グラフはComet for Windowsで作成したものです。

---------------------------------------------------------------------

Copyright(C) Seiichi Yoshida (comet@aerith.net). All rights reserved.